Regional Weather Roundup
Issued by NWS Newport/Morehead, NC

Current Version | Previous Version | Text Only | Print | Product List | Glossary On
Versions: 1 2 3 4 5 6 7 8 9 10 11 12 13 14 15 16 17 18 19 20 21 22 23 24 25 26 27 28 29 30 31 32 33 34 35 36 37 38 39 40 41 42 43 44 45 46 47 48 49 50
000
ASUS42 KMHX 030124
RWRMHX
WEATHER ROUNDUP FOR EASTERN NORTH CAROLINA
NATIONAL WEATHER SERVICE NEWPORT/MOREHEAD CITY NC
800 PM EST MON MAR 02 2015

NOTE: "FAIR" INDICATES FEW OR NO CLOUDS BELOW 12,000 FEET
WITH NO SIGNIFICANT WEATHER AND/OR OBSTRUCTIONS TO VISIBILITY

NCZ015>017-031-032-045>047-102-103-030200-
NORTH COAST

CITY           SKY/WX    TMP DP  RH WIND       PRES   REMARKS
EDENTON        MOCLDY    40  34  78 E3        30.36R
ELIZABETH CITY MOCLDY    39  29  67 MISG      30.36R
KITTY HAWK     PTCLDY    38  29  69 NE6       30.33S
MANTEO         PTCLDY    37  28  70 NE10      30.35S

$$

NCZ045>047-081-094-103-104-030200-
CENTRAL COAST

CITY           SKY/WX    TMP DP  RH WIND       PRES   REMARKS
FRISCO         CLEAR     40  30  67 NE8       30.35R
SWANQUARTER      N/A     41 N/A N/A E3G12     30.30S

$$

NCZ095-097-098-100-101-030200-
SOUTHERN COAST

CITY           SKY/WX    TMP DP  RH WIND       PRES   REMARKS
BEAUFORT       PTCLDY    42  31  64 NE10G18   30.33R
CEDAR ISLAND     N/A     41 N/A N/A NE10G23   30.39S
JACKSONVILLE   NOT AVBL
PINEY ISLAND     N/A    N/A N/A N/A MISG      30.33R
WILMINGTON     MOCLDY    49  41  74 E14       30.31R


$$

NCZ011>013-027>030-043-044-078>080-089-090>093-098-030200-
COASTAL PLAIN

CITY           SKY/WX    TMP DP  RH WIND       PRES   REMARKS
AHOSKIE        CLOUDY    45  37  73 CALM      30.35R
CLINTON        PTCLDY    48  43  84 CALM      30.30R
ELIZABETHTOWN  PTCLDY    52  45  77 CALM      30.28S
GOLDSBORO      PTCLDY    52  47  81 E13       30.28R
GREENVILLE     PTCLDY    46  41  81 E8        30.33R
HAVELOCK       PTCLDY    42  32  67 E6        30.35R
KENANSVILLE    PTCLDY    48  42  79 E6        30.32R
KINSTON        MOCLDY    50  43  76 E8        30.32R
NEW BERN       PTCLDY    42  34  73 E8        30.34R
RICHLANDS      CLEAR     45  36  70 NE8       30.34R
ROCKY MOUNT    MOCLDY    48  41  76 NE6       30.32R
WASHINGTON     PTCLDY    41  33  74 E7        30.35R
WHITEVILLE     PTCLDY    51  48  90 CALM      30.28R

$$

AMZ130-135-150-152-154-156-158-170-250-252-270-ANZ085-086-088-633-658-670-030200-
MARINE OBSERVATIONS

STATION/POSITION TIME  TEMP    WIND        PRES    WAVE   SWELL
                       AIR SEA DIR/SP/G            HT/PER HT/PER
                 (UTC) (F)     (DEG/KT/KT) (MB)    (FT/S) (FT/S)
CHESAPEAKE LIGHT 0100   38      20/  6/  7 1029.0
64 E VA BEACH    0050   45 54  360/ 21/ 25 1026.9    5/ 6   2/10
DUCK             0100      35   20/  9/ 10 1027.0
2 E DUCK         0011      35                N/A     2/10
10 NE DUCK       0022      37                N/A     3/ 3
OREGON INLET     0100      44   10/ 12/ 17 1027.3
HATTERAS CG      0100      44   40/  9/ 13 1028.0
CAPE LOOKOUT     0100   45      50/ 25/ 27 1026.8
BEAUFORT LAB     0100      44   50/ 10/ 18 1026.1
27 SE WRIGHTSVLE NOT AVBL
5 SE WRIGHTSVLE  NOT AVBL
225 S CAPE HAT   0050   69 73  350/ 17/ 19 1023.2    5/ 9   3/ 9
41 SE CHARLESTON 0050   60 67   30/ 14/ 16 1023.8    3/ 9   3/ 9

$$


USA.gov is the U.S. government's official web portal to all federal, state and local government web resources and services.